SIA158 WSSS-VDPP

Flight info

Callsign SIA158
Flight time 1h 32m
Altitude 36000
Route VMR6A VMR L642 ENREP M753 IPRIX/K0913F360 M753 BITOD M755 KISAN NARET3A
Aircraft A359/H-SDE1E2E3GHIJ1J2J3J5M1P2RWXYZ/LB1D1

Departure

Time 2026-04-17 12:25
Airport Singapore Changi Airport (WSSS)

Arrival

Time 2026-04-17 13:57
Airport Phnom Penh International Airport (VDPP)
Time Latitude Longitude Altitude Speed Heading
2026-04-17 11:52 1.34981 103.98804 55 ft 0 kts 294°
2026-04-17 12:12 1.34976 103.98834 56 ft 2 kts 262°
2026-04-17 12:12 1.34979 103.98848 55 ft 2 kts 248°
2026-04-17 12:12 1.34986 103.98862 55 ft 2 kts 234°
2026-04-17 12:12 1.34992 103.98869 55 ft 2 kts 224°
2026-04-17 12:13 1.35008 103.98881 55 ft 2 kts 205°
2026-04-17 12:13 1.35017 103.98885 55 ft 2 kts 200°
2026-04-17 12:13 1.35028 103.98889 55 ft 0 kts 201°
2026-04-17 12:16 1.35021 103.98887 55 ft 1 kts 201°
2026-04-17 12:16 1.35008 103.98882 55 ft 2 kts 201°
2026-04-17 12:16 1.34996 103.98876 55 ft 3 kts 201°
2026-04-17 12:16 1.34956 103.98885 54 ft 6 kts 142°
2026-04-17 12:17 1.34922 103.98930 53 ft 9 kts 117°
2026-04-17 12:17 1.34892 103.98992 51 ft 9 kts 115°
2026-04-17 12:17 1.34863 103.99056 49 ft 9 kts 114°
2026-04-17 12:17 1.34824 103.99105 47 ft 10 kts 160°
2026-04-17 12:18 1.34756 103.99098 46 ft 9 kts 200°
2026-04-17 12:18 1.34691 103.99071 44 ft 11 kts 202°
2026-04-17 12:18 1.34607 103.99036 42 ft 14 kts 203°
2026-04-17 12:18 1.34513 103.98995 40 ft 15 kts 203°
2026-04-17 12:19 1.34405 103.98949 38 ft 19 kts 203°
2026-04-17 12:19 1.34315 103.98910 37 ft 22 kts 203°
2026-04-17 12:19 1.34109 103.98820 35 ft 25 kts 204°
2026-04-17 12:19 1.33947 103.98750 35 ft 25 kts 203°
2026-04-17 12:20 1.33794 103.98686 33 ft 22 kts 203°
2026-04-17 12:20 1.33657 103.98628 34 ft 21 kts 203°
2026-04-17 12:20 1.33568 103.98590 35 ft 21 kts 203°
2026-04-17 12:20 1.33388 103.98515 36 ft 20 kts 203°
2026-04-17 12:21 1.33258 103.98460 37 ft 20 kts 203°
2026-04-17 12:21 1.33173 103.98425 38 ft 17 kts 203°
2026-04-17 12:21 1.33064 103.98378 37 ft 12 kts 202°
2026-04-17 12:21 1.32996 103.98357 36 ft 8 kts 181°
2026-04-17 12:22 1.32959 103.98369 36 ft 8 kts 147°
2026-04-17 12:22 1.32915 103.98438 36 ft 9 kts 116°
2026-04-17 12:22 1.32894 103.98489 36 ft 5 kts 96°
2026-04-17 12:22 1.32919 103.98515 36 ft 6 kts 27°
2026-04-17 12:23 1.32947 103.98528 36 ft 6 kts 24°
2026-04-17 12:23 1.32970 103.98538 36 ft 0 kts 23°
2026-04-17 12:23 1.32987 103.98546 36 ft 10 kts 23°
2026-04-17 12:23 1.33290 103.98674 34 ft 85 kts 22°
2026-04-17 12:24 1.34028 103.98984 37 ft 148 kts 22°
2026-04-17 12:24 1.34793 103.99305 231 ft 168 kts 23°
2026-04-17 12:24 1.35394 103.99558 534 ft 176 kts 22°
2026-04-17 12:25 1.38100 104.00687 1951 ft 203 kts 22°
2026-04-17 12:25 1.39725 104.01361 2577 ft 221 kts 22°
2026-04-17 12:25 1.40714 104.01773 2936 ft 232 kts 22°
2026-04-17 12:26 1.47642 104.04677 5968 ft 272 kts 20°
2026-04-17 12:26 1.48878 104.04989 6535 ft 275 kts
2026-04-17 12:27 1.51323 104.04343 7736 ft 278 kts 331°
2026-04-17 12:27 1.52443 104.03713 8350 ft 280 kts 330°
2026-04-17 12:27 1.54723 104.02433 9524 ft 286 kts 331°
2026-04-17 12:27 1.56442 104.01483 10398 ft 290 kts 331°
2026-04-17 12:28 1.58242 104.00499 11039 ft 304 kts 331°
2026-04-17 12:28 1.59517 103.99806 11410 ft 316 kts 331°
2026-04-17 12:28 1.62214 103.98346 12135 ft 339 kts 332°
2026-04-17 12:28 1.64342 103.97198 12653 ft 356 kts 332°
2026-04-17 12:29 1.65836 103.96391 12987 ft 368 kts 332°
2026-04-17 12:29 1.68156 103.95139 13465 ft 385 kts 332°
2026-04-17 12:29 1.71400 103.93388 14243 ft 403 kts 332°
2026-04-17 12:29 1.73957 103.92126 15079 ft 408 kts 338°
2026-04-17 12:30 1.76661 103.91260 15933 ft 412 kts 347°
2026-04-17 12:30 1.78589 103.90914 16482 ft 416 kts 353°
2026-04-17 12:30 1.82457 103.90612 17533 ft 422 kts 356°
2026-04-17 12:30 1.85403 103.90447 18287 ft 427 kts 357°
2026-04-17 12:31 1.87368 103.90338 18779 ft 430 kts 356°
2026-04-17 12:31 1.90367 103.90166 19510 ft 434 kts 356°
2026-04-17 12:31 1.93386 103.89986 20223 ft 439 kts 356°
2026-04-17 12:31 1.96464 103.89797 20927 ft 443 kts 356°
2026-04-17 12:32 1.99547 103.89603 21604 ft 448 kts 356°
2026-04-17 12:32 2.03722 103.89339 22484 ft 454 kts 356°
2026-04-17 12:32 2.06875 103.89137 23123 ft 458 kts 356°
2026-04-17 12:32 2.09971 103.88940 23727 ft 462 kts 356°
2026-04-17 12:33 2.12176 103.88799 24144 ft 465 kts 356°
2026-04-17 12:33 2.16474 103.88527 24933 ft 470 kts 356°
2026-04-17 12:33 2.18684 103.88387 25323 ft 473 kts 356°
2026-04-17 12:33 2.23082 103.88110 26070 ft 478 kts 356°
2026-04-17 12:34 2.25268 103.87972 26427 ft 481 kts 356°
2026-04-17 12:34 2.29756 103.87688 27130 ft 486 kts 356°
2026-04-17 12:34 2.32030 103.87543 27475 ft 489 kts 356°
2026-04-17 12:34 2.36581 103.87407 28239 ft 491 kts
2026-04-17 12:35 2.39978 103.87513 28983 ft 488 kts
2026-04-17 12:35 2.43374 103.87801 29706 ft 485 kts
2026-04-17 12:35 2.46694 103.88248 30347 ft 484 kts
2026-04-17 12:35 2.49999 103.88744 30943 ft 482 kts
2026-04-17 12:37 2.73132 103.92250 34356 ft 475 kts
2026-04-17 12:37 2.75348 103.92584 34623 ft 475 kts
2026-04-17 12:38 2.79716 103.93242 35122 ft 474 kts
2026-04-17 12:38 2.82978 103.93734 35474 ft 473 kts
2026-04-17 12:38 2.86281 103.94232 35818 ft 472 kts
2026-04-17 12:38 2.89518 103.94719 35999 ft 473 kts
2026-04-17 12:39 2.91732 103.95051 36003 ft 477 kts
2026-04-17 12:39 2.98367 103.96050 36007 ft 483 kts
2026-04-17 12:40 3.05034 103.97063 36006 ft 483 kts
2026-04-17 12:40 3.11699 103.98079 36008 ft 483 kts
2026-04-17 12:41 3.18424 103.99102 36006 ft 483 kts
2026-04-17 12:41 3.25071 104.00119 36004 ft 483 kts
2026-04-17 12:42 3.32892 104.01315 36007 ft 483 kts
2026-04-17 12:42 3.39581 104.02307 36007 ft 483 kts
2026-04-17 12:43 3.45124 104.03128 36008 ft 483 kts
2026-04-17 12:43 3.51834 104.04129 36007 ft 483 kts
2026-04-17 12:44 3.59606 104.05293 36007 ft 483 kts
2026-04-17 12:44 3.66300 104.06297 36007 ft 483 kts
2026-04-17 12:45 3.73009 104.07304 36007 ft 483 kts
2026-04-17 12:45 3.78570 104.08142 36006 ft 483 kts
2026-04-17 12:46 3.85280 104.09152 36007 ft 483 kts
2026-04-17 12:46 3.91994 104.10149 36007 ft 483 kts
2026-04-17 12:47 3.98692 104.11143 36006 ft 483 kts
2026-04-17 12:47 4.05390 104.12142 36006 ft 483 kts
2026-04-17 12:48 4.12108 104.13147 36007 ft 483 kts
2026-04-17 12:48 4.19916 104.14312 36006 ft 483 kts
2026-04-17 12:49 4.25456 104.15141 36007 ft 483 kts
2026-04-17 12:49 4.32136 104.16143 36008 ft 484 kts
2026-04-17 12:50 4.38849 104.17152 36006 ft 483 kts
2026-04-17 12:50 4.45564 104.18160 36007 ft 483 kts
2026-04-17 12:51 4.53384 104.19335 36007 ft 483 kts
2026-04-17 12:51 4.60093 104.20345 36006 ft 483 kts
2026-04-17 12:52 4.65667 104.21185 36005 ft 483 kts
2026-04-17 12:52 4.73463 104.22363 36007 ft 483 kts
2026-04-17 12:53 4.80171 104.23376 36006 ft 484 kts
2026-04-17 12:53 4.85759 104.24023 36006 ft 484 kts
2026-04-17 12:54 4.92543 104.24149 36005 ft 484 kts 358°
2026-04-17 12:54 4.99268 104.23803 36004 ft 484 kts 357°
2026-04-17 12:55 5.07153 104.23365 36007 ft 484 kts 357°
2026-04-17 12:55 5.12835 104.23058 36009 ft 484 kts 357°
2026-04-17 12:56 5.20680 104.22640 36005 ft 483 kts 357°
2026-04-17 12:56 5.27445 104.22281 36007 ft 484 kts 357°
2026-04-17 12:57 5.34183 104.21922 36007 ft 484 kts 357°
2026-04-17 12:57 5.39847 104.21622 36005 ft 483 kts 357°
2026-04-17 12:58 5.47706 104.21204 36006 ft 484 kts 357°
2026-04-17 12:58 5.53345 104.20905 36008 ft 483 kts 357°
2026-04-17 12:59 5.60153 104.20543 36007 ft 484 kts 357°
2026-04-17 12:59 5.66898 104.20184 36007 ft 484 kts 357°
2026-04-17 13:00 5.73681 104.19823 36007 ft 484 kts 357°
2026-04-17 13:00 5.81572 104.19403 36006 ft 484 kts 357°
2026-04-17 13:01 5.87204 104.19102 36005 ft 484 kts 357°
2026-04-17 13:01 5.93982 104.18742 36008 ft 484 kts 357°
2026-04-17 13:02 6.00706 104.18385 36008 ft 484 kts 357°
2026-04-17 13:02 6.07468 104.18024 36004 ft 484 kts 357°
2026-04-17 13:03 6.14234 104.17664 36006 ft 483 kts 357°
2026-04-17 13:03 6.22111 104.17247 36006 ft 484 kts 357°
2026-04-17 13:04 6.27754 104.16946 36007 ft 484 kts 357°
2026-04-17 13:04 6.34524 104.16587 36007 ft 484 kts 357°
2026-04-17 13:05 6.42391 104.16168 36006 ft 484 kts 357°
2026-04-17 13:05 6.48054 104.15867 36006 ft 484 kts 357°
2026-04-17 13:06 6.55920 104.15448 36006 ft 484 kts 357°
2026-04-17 13:06 6.62693 104.15088 36006 ft 484 kts 357°
2026-04-17 13:07 6.68344 104.14788 36005 ft 484 kts 357°
2026-04-17 13:07 6.75067 104.14432 36007 ft 484 kts 357°
2026-04-17 13:08 6.81817 104.14074 36009 ft 484 kts 357°
2026-04-17 13:08 6.88597 104.13718 36005 ft 484 kts 357°
2026-04-17 13:09 6.95357 104.13366 36008 ft 484 kts 357°
2026-04-17 13:09 7.03245 104.12946 36008 ft 484 kts 357°
2026-04-17 13:10 7.09955 104.12597 36005 ft 484 kts 357°
2026-04-17 13:10 7.15616 104.12308 36007 ft 483 kts 357°
2026-04-17 13:11 7.23496 104.12064 36006 ft 484 kts
2026-04-17 13:11 7.29086 104.12415 36007 ft 484 kts
2026-04-17 13:12 7.35787 104.13416 36007 ft 484 kts
2026-04-17 13:12 7.45796 104.15103 36007 ft 484 kts
2026-04-17 13:13 7.53583 104.16410 36008 ft 484 kts
2026-04-17 13:13 7.59162 104.17343 36006 ft 484 kts
2026-04-17 13:14 7.66945 104.18644 36007 ft 484 kts
2026-04-17 13:14 7.72530 104.19578 36006 ft 484 kts
2026-04-17 13:15 7.80306 104.20877 36007 ft 484 kts
2026-04-17 13:15 7.87021 104.21999 36008 ft 484 kts
2026-04-17 13:16 7.92563 104.22926 36006 ft 484 kts
2026-04-17 13:16 7.99245 104.24045 36007 ft 484 kts
2026-04-17 13:17 8.05922 104.25163 36007 ft 484 kts
2026-04-17 13:17 8.12629 104.26285 36007 ft 484 kts
2026-04-17 13:18 8.19293 104.27395 36006 ft 484 kts
2026-04-17 13:18 8.27065 104.28693 36007 ft 484 kts
2026-04-17 13:19 8.33729 104.29809 36007 ft 483 kts
2026-04-17 13:19 8.39299 104.30743 36006 ft 483 kts
2026-04-17 13:20 8.45961 104.31860 36007 ft 483 kts
2026-04-17 13:20 8.52619 104.32977 36007 ft 483 kts
2026-04-17 13:21 8.60405 104.34284 36007 ft 483 kts
2026-04-17 13:21 8.65995 104.35223 36007 ft 483 kts
2026-04-17 13:22 8.72633 104.36338 36007 ft 483 kts
2026-04-17 13:22 8.80412 104.37644 36007 ft 483 kts
2026-04-17 13:23 8.87096 104.38768 36007 ft 483 kts
2026-04-17 13:23 8.92619 104.39697 36006 ft 483 kts
2026-04-17 13:24 9.00402 104.41007 36006 ft 483 kts
2026-04-17 13:24 9.05927 104.41936 35723 ft 473 kts
2026-04-17 13:25 9.09159 104.42481 35472 ft 467 kts
2026-04-17 13:25 9.12385 104.43024 35217 ft 466 kts
2026-04-17 13:25 9.16651 104.43739 34881 ft 463 kts
2026-04-17 13:25 9.18777 104.44096 34714 ft 463 kts
2026-04-17 13:26 9.21984 104.44634 34459 ft 463 kts
2026-04-17 13:26 9.25183 104.45173 34206 ft 464 kts
2026-04-17 13:26 9.29466 104.45895 33870 ft 465 kts
2026-04-17 13:26 9.32636 104.46429 33618 ft 465 kts
2026-04-17 13:27 9.35880 104.46976 33364 ft 466 kts
2026-04-17 13:27 9.38016 104.47337 33194 ft 466 kts
2026-04-17 13:27 9.42284 104.48058 32860 ft 467 kts
2026-04-17 13:27 9.45521 104.48605 32605 ft 467 kts
2026-04-17 13:28 9.47658 104.48965 32429 ft 468 kts
2026-04-17 13:28 9.51948 104.49691 31957 ft 469 kts
2026-04-17 13:28 9.55202 104.50240 31389 ft 471 kts
2026-04-17 13:28 9.57369 104.50606 30939 ft 471 kts
2026-04-17 13:29 9.61707 104.51339 30020 ft 472 kts
2026-04-17 13:29 9.63854 104.51701 29552 ft 472 kts
2026-04-17 13:29 9.67125 104.52254 28814 ft 474 kts
2026-04-17 13:29 9.71458 104.52988 27823 ft 475 kts
2026-04-17 13:30 9.73627 104.53355 27313 ft 476 kts
2026-04-17 13:30 9.76923 104.53913 26523 ft 476 kts
2026-04-17 13:30 9.80219 104.54472 25813 ft 475 kts
2026-04-17 13:30 9.84518 104.55201 25150 ft 467 kts
2026-04-17 13:31 9.86673 104.55567 24759 ft 465 kts
2026-04-17 13:31 9.90907 104.56288 24079 ft 458 kts
2026-04-17 13:31 9.92998 104.56644 23756 ft 454 kts
2026-04-17 13:31 9.96072 104.57170 23269 ft 449 kts
2026-04-17 13:32 9.99181 104.57703 22776 ft 445 kts
2026-04-17 13:32 10.02227 104.58224 22295 ft 440 kts
2026-04-17 13:32 10.06217 104.58901 21669 ft 435 kts
2026-04-17 13:32 10.08240 104.59251 21348 ft 432 kts
2026-04-17 13:33 10.12161 104.59941 20710 ft 427 kts
2026-04-17 13:33 10.14150 104.60293 20396 ft 425 kts
2026-04-17 13:33 10.18026 104.60984 19765 ft 420 kts 10°
2026-04-17 13:33 10.20893 104.61498 19298 ft 417 kts 10°
2026-04-17 13:34 10.23756 104.62013 18832 ft 414 kts 10°
2026-04-17 13:34 10.26591 104.62523 18369 ft 411 kts 10°
2026-04-17 13:34 10.29401 104.63030 17908 ft 408 kts 10°
2026-04-17 13:34 10.32197 104.63535 17447 ft 405 kts 10°
2026-04-17 13:35 10.34056 104.63871 17141 ft 403 kts 10°
2026-04-17 13:35 10.37714 104.64530 16534 ft 399 kts 10°
2026-04-17 13:35 10.40472 104.65029 16080 ft 396 kts 10°
2026-04-17 13:35 10.42261 104.65359 15779 ft 394 kts 10°
2026-04-17 13:36 10.45863 104.66028 15182 ft 390 kts 10°
2026-04-17 13:36 10.47650 104.66357 14881 ft 389 kts 10°
2026-04-17 13:36 10.50330 104.66845 14429 ft 386 kts 10°
2026-04-17 13:36 10.52986 104.67325 13982 ft 384 kts 10°
2026-04-17 13:37 10.56477 104.67929 13396 ft 380 kts
2026-04-17 13:37 10.58220 104.68218 13099 ft 379 kts
2026-04-17 13:37 10.61693 104.68792 12507 ft 376 kts
2026-04-17 13:37 10.63398 104.69076 12215 ft 374 kts
2026-04-17 13:38 10.65968 104.69504 11777 ft 372 kts
2026-04-17 13:38 10.68542 104.69936 11335 ft 370 kts
2026-04-17 13:38 10.71110 104.70368 10896 ft 368 kts
2026-04-17 13:38 10.74443 104.70931 10616 ft 361 kts
2026-04-17 13:39 10.76950 104.71353 10458 ft 360 kts
2026-04-17 13:39 10.78590 104.71630 10355 ft 359 kts
2026-04-17 13:39 10.81088 104.72051 10213 ft 357 kts
2026-04-17 13:39 10.84366 104.72604 10054 ft 356 kts
2026-04-17 13:40 10.86013 104.72889 9975 ft 356 kts 12°
2026-04-17 13:40 10.88383 104.73641 9703 ft 350 kts 24°
2026-04-17 13:40 10.91135 104.75325 9328 ft 340 kts 36°
2026-04-17 13:40 10.92396 104.76286 9126 ft 336 kts 37°
2026-04-17 13:41 10.94221 104.77710 9020 ft 324 kts 37°
2026-04-17 13:41 10.96566 104.79530 9004 ft 304 kts 37°
2026-04-17 13:41 10.97688 104.80394 8999 ft 295 kts 37°
2026-04-17 13:41 10.99300 104.81626 9000 ft 282 kts 37°
2026-04-17 13:42 11.00890 104.82838 9001 ft 284 kts 37°
2026-04-17 13:42 11.03006 104.84447 8943 ft 285 kts 37°
2026-04-17 13:42 11.04618 104.85671 8492 ft 287 kts 37°
2026-04-17 13:42 11.06198 104.86870 8167 ft 281 kts 37°
2026-04-17 13:43 11.07772 104.88064 8034 ft 278 kts 37°
2026-04-17 13:43 11.09345 104.89259 8007 ft 279 kts 37°
2026-04-17 13:43 11.10915 104.90448 8005 ft 280 kts 37°
2026-04-17 13:43 11.11974 104.91248 8003 ft 280 kts 36°
2026-04-17 13:44 11.13526 104.92420 8002 ft 279 kts 37°
2026-04-17 13:44 11.15098 104.93610 8002 ft 279 kts 37°
2026-04-17 13:44 11.16676 104.94808 8001 ft 279 kts 37°
2026-04-17 13:44 11.18770 104.96400 8001 ft 279 kts 37°
2026-04-17 13:45 11.20334 104.97591 8002 ft 279 kts 37°
2026-04-17 13:45 11.21368 104.98377 8001 ft 279 kts 37°
2026-04-17 13:45 11.22951 104.99583 7999 ft 279 kts 37°
2026-04-17 13:45 11.25041 105.01175 7997 ft 280 kts 37°
2026-04-17 13:46 11.26607 105.02369 7773 ft 282 kts 37°
2026-04-17 13:46 11.27641 105.03156 7589 ft 277 kts 37°
2026-04-17 13:46 11.29180 105.04329 7333 ft 271 kts 37°
2026-04-17 13:46 11.31181 105.05853 7001 ft 263 kts 37°
2026-04-17 13:47 11.32635 105.06960 6763 ft 259 kts 37°
2026-04-17 13:47 11.33628 105.07674 6582 ft 260 kts 29°
2026-04-17 13:47 11.35971 105.08168 6235 ft 259 kts 353°
2026-04-17 13:47 11.37143 105.07951 6087 ft 258 kts 348°
2026-04-17 13:48 11.39501 105.07444 5768 ft 258 kts 348°
2026-04-17 13:48 11.41277 105.07073 5528 ft 257 kts 348°
2026-04-17 13:48 11.42450 105.06834 5374 ft 257 kts 348°
2026-04-17 13:48 11.44806 105.06361 5055 ft 257 kts 349°
2026-04-17 13:49 11.46573 105.06009 4822 ft 255 kts 349°
2026-04-17 13:49 11.47736 105.05779 4661 ft 251 kts 349°
2026-04-17 13:49 11.49967 105.05339 4364 ft 238 kts 349°
2026-04-17 13:49 11.51047 105.05128 4221 ft 232 kts 349°
2026-04-17 13:50 11.52612 105.04820 4009 ft 224 kts 349°
2026-04-17 13:50 11.54113 105.04526 3835 ft 213 kts 349°
2026-04-17 13:50 11.56012 105.04153 3560 ft 200 kts 349°
2026-04-17 13:50 11.57355 105.03889 3377 ft 191 kts 349°
2026-04-17 13:51 11.58641 105.03636 3211 ft 188 kts 349°
2026-04-17 13:51 11.59943 105.03360 3039 ft 187 kts 343°
2026-04-17 13:51 11.61147 105.02827 3007 ft 187 kts 329°
2026-04-17 13:51 11.61838 105.02322 2902 ft 181 kts 319°
2026-04-17 13:52 11.63029 105.01161 2794 ft 176 kts 315°
2026-04-17 13:52 11.63917 105.00272 2716 ft 176 kts 315°
2026-04-17 13:52 11.64502 104.99688 2666 ft 175 kts 315°
2026-04-17 13:52 11.65608 104.98573 2562 ft 161 kts 310°
2026-04-17 13:53 11.65990 104.97898 2518 ft 163 kts 287°
2026-04-17 13:53 11.66017 104.96751 2463 ft 163 kts 249°
2026-04-17 13:53 11.65134 104.95489 2472 ft 164 kts 230°
2026-04-17 13:53 11.64374 104.94605 2466 ft 163 kts 227°
2026-04-17 13:54 11.62791 104.92909 2080 ft 162 kts 225°
2026-04-17 13:54 11.62030 104.92112 1866 ft 151 kts 225°
2026-04-17 13:55 11.60820 104.90848 1544 ft 148 kts 225°
2026-04-17 13:55 11.60101 104.90095 1349 ft 147 kts 225°
2026-04-17 13:55 11.58659 104.88593 963 ft 147 kts 225°
2026-04-17 13:56 11.56990 104.86848 512 ft 146 kts 225°
2026-04-17 13:56 11.56281 104.86111 312 ft 145 kts 225°
2026-04-17 13:56 11.55574 104.85373 107 ft 143 kts 225°
2026-04-17 13:57 11.55123 104.84911 58 ft 130 kts 229°
2026-04-17 13:57 11.54609 104.84366 56 ft 78 kts 226°
2026-04-17 13:57 11.54183 104.83923 56 ft 22 kts 226°
2026-04-17 13:58 11.54130 104.83857 56 ft 9 kts 255°
2026-04-17 13:58 11.54207 104.83752 56 ft 10 kts 341°
2026-04-17 13:58 11.54289 104.83779 56 ft 9 kts 38°
2026-04-17 13:59 11.54381 104.83879 56 ft 11 kts 46°
2026-04-17 13:59 11.54419 104.83919 56 ft 12 kts 45°
2026-04-17 13:59 11.54484 104.83986 56 ft 14 kts 45°
2026-04-17 14:00 11.54586 104.84092 56 ft 17 kts 45°
2026-04-17 14:00 11.54680 104.84190 56 ft 20 kts 45°
2026-04-17 14:00 11.54784 104.84299 56 ft 21 kts 46°
2026-04-17 14:00 11.54855 104.84373 56 ft 21 kts 46°
2026-04-17 14:01 11.54956 104.84479 56 ft 10 kts 46°
2026-04-17 14:01 11.55031 104.84528 56 ft 8 kts 14°
2026-04-17 14:01 11.55069 104.84541 56 ft 8 kts 24°
2026-04-17 14:01 11.55121 104.84580 56 ft 10 kts 44°
2026-04-17 14:02 11.55178 104.84642 56 ft 6 kts 47°
2026-04-17 14:02 11.55208 104.84669 56 ft 4 kts 22°
2026-04-17 14:02 11.55228 104.84666 56 ft 4 kts 333°
2026-04-17 14:02 11.55252 104.84649 57 ft 1 kts 322°
2026-04-17 14:03 11.55253 104.84648 57 ft 0 kts 322°